Weather History for Jordan, MT

Change the Weather History Date:

Monday, August 26, 2013

  Actual Average Record
Temperature  
Mean Temperature 76 °F 66 °F  
Max Temperature 93 °F 83 °F 102 °F (2010)
Min Temperature 59 °F 50 °F 33 °F (1935)
Degree Days  
Heating Degree Days 0 2  
Month to date heating degree days 7 27  
Since 1 June heating degree days 108 177  
Since 1 July heating degree days 13 52  
Cooling Degree Days 11 3  
Month to date cooling degree days 144 148  
Year to date cooling degree days 393 379  
Since 1 June cooling degree days 381 373  
Growing Degree Days 26 (Base 50)    
Moisture  
Dew Point 52 °F    
Average Humidity 50    
Maximum Humidity 78    
Minimum Humidity 21    
Precipitation  
Precipitation 0.00 in 0.02 in 1.05 in (1990)
Month to date precipitation 1.05 1.07  
Year to date precipitation 13.91 9.80  
Snow  
Snow 0.00 in - - ()
Month to date snowfall 0.0  
Since 1 June snowfall 0.0  
Since 1 July snowfall 0.0  
Snow Depth 0.00 in    
Sea Level Pressure  
Sea Level Pressure 29.85 in    
Wind  
Wind Speed 5 mph (NW)    
Max Wind Speed 18 mph    
Max Gust Speed 23 mph    
T = Trace of Precipitation, MM = Missing Value Source: NWS Daily Summary

Daily Weather History Graph

Daily Weather History Graph

Search for Another Location

Airport:

Trip Planner

Search our weather history database for the weather conditions in past years. The results will help you decide how hot, cold, wet, or windy it might be!

Date:

Astronomy

Aug. 26, 2013 Rise Set
Actual Time 6:19 AM MDT 7:58 PM MDT
Civil Twilight 5:46 AM MDT 8:30 PM MDT
Nautical Twilight 5:07 AM MDT 9:10 PM MDT
Astronomical Twilight 4:24 AM MDT 9:52 PM MDT
Moon 10:42 PM MDT (8/26) 12:51 PM MDT (8/26)
Length of Visible Light 14h 44m
Length of Day
13h 39m
Waning Gibbous, 66% of the Moon is Illuminated
Aug 26
Waning Gibbous
Aug 28
Last Quarter
Sep 5
New
Sep 12
First Quarter
Sep 19
Full

Hourly Weather History & Observations

Time (MDT) Temp. Heat Index Dew Point Humidity Pressure Visibility Wind Dir Wind Speed Gust Speed Precip Events Conditions
12:48 AM 70.0 °F - 55.0 °F 59% 29.83 in - Calm Calm - N/A   Unknown
1:48 AM 70.0 °F - 55.9 °F 61% 29.82 in - NE 3.5 mph - N/A   Unknown
2:48 AM 62.1 °F - 55.0 °F 78% 29.82 in - Calm Calm - N/A   Unknown
3:48 AM 61.0 °F - 53.1 °F 75% 29.83 in - West 3.5 mph - N/A   Unknown
4:48 AM 60.1 °F - 52.0 °F 75% 29.83 in - Calm Calm - N/A   Unknown
5:48 AM 62.1 °F - 53.1 °F 72% 29.83 in - West 4.6 mph - N/A   Unknown
6:48 AM 62.1 °F - 53.1 °F 72% 29.84 in - Calm Calm - N/A   Unknown
7:48 AM 66.9 °F - 55.0 °F 66% 29.85 in - Calm Calm - N/A   Unknown
8:48 AM 73.0 °F - 55.9 °F 55% 29.86 in - WNW 3.5 mph - N/A   Unknown
9:48 AM 77.0 °F - 54.0 °F 45% 29.87 in - WNW 11.5 mph - N/A   Unknown
10:48 AM 81.0 °F 80.4 °F 53.1 °F 38% 29.89 in - West 11.5 mph - N/A   Unknown
11:48 AM 84.9 °F - 48.9 °F 29% 29.87 in - NW 17.3 mph - N/A   Unknown
12:48 PM 89.1 °F - 48.9 °F 25% 29.85 in - NW 13.8 mph - N/A   Unknown
1:48 PM 90.0 °F - 48.9 °F 24% 29.85 in - WNW 12.7 mph - N/A   Unknown
2:48 PM 91.0 °F - 50.0 °F 24% 29.86 in - NNW 11.5 mph - N/A   Unknown
3:48 PM 90.0 °F - 48.0 °F 24% 29.85 in - North 6.9 mph - N/A   Unknown
4:48 PM 91.9 °F - 48.0 °F 22% 29.84 in - NNW 3.5 mph - N/A   Unknown
5:48 PM 91.9 °F - 46.0 °F 21% 29.84 in - North 5.8 mph - N/A   Unknown
6:48 PM 88.0 °F - 48.9 °F 26% 29.83 in - NE 3.5 mph - N/A   Unknown
7:48 PM 78.1 °F - 52.0 °F 40% 29.85 in - Calm Calm - N/A   Unknown
8:48 PM 72.0 °F - 51.1 °F 48% 29.86 in - Calm Calm - N/A   Unknown
9:48 PM 72.0 °F - 51.1 °F 48% 29.84 in - Calm Calm - N/A   Unknown
10:48 PM 66.0 °F - 55.0 °F 68% 29.83 in - Calm Calm - N/A   Unknown
11:48 PM 63.0 °F - 53.1 °F 70% 29.85 in - Calm Calm - N/A   Unknown